Content
SEND FEEDBACK

Daily
Averages
Monthly
Summary
Cuba

GUANABACOA, CUBA


Home > Caribbean > Cuba
Elevation: 49 meters     Latitude: 23 10N     Longitude: 082 21W

WEATHER
 
SELECT A DAY
Number of Records: 141,527;   Date Range: 6/30/96 - 9/30/14
 
SHARE

PRINT THIS DATA

[ ← Previous Day ]
WEATHER ALMANAC - 15 MAY, 2014
[ Next Day → ]
[ °F ]   °C
Weather ElementAverageHighLow
Temperature25.4 °C31 °C (12:55 pm)22 °C (6:55 am)
Dewpoint21.5 °C23 °C (2:55 pm)20 °C (1:55 pm)
Humidity78.9 %94 % (6:55 am)52 % (1:55 pm)
Barometer1015.6 hPa1017.3 hPa (10:55 pm)1015.2 hPa (2:55 am)
Wind Speed8.4 km/h18.5 km/h (4:16 pm)
Weather ElementAverage
Visibility7.9 km
Wind DirectionESE (123.4 °)

Weather ElementTotal
Precipitation---
Cooling Degree Days8.2 (Base 18.3)
Growing Degree Days16.5 (Base 10)
Averaged from 31 records on 15 May, 2014
WEATHER CONDITIONS BREAKOUT
WIND DIRECTION BREAKOUT
WEATHER BY HOUR - 15 MAY, 2014
[ °F ]   °C
Local TimeTemperatureDewpointHumidityBarometerVisibilityWind DirectionWind SpeedGust SpeedPrecipitationEventsConditions
1:55 AM23 °C21 °C88 %1016.3 hPa9 kmVariable3.7 km/hScattered Clouds
2:55 AM23 °C21 °C88 %1015.2 hPa9 kmVariable1.9 km/hScattered Clouds
3:55 AM23 °C21 °C88 %1015.2 hPa9 kmWSW (240°)5.6 km/hScattered Clouds
4:55 AM23 °C21 °C88 %1015.2 hPa9 kmVariable3.7 km/hScattered Clouds
5:00 AM22.8 °C21.1 °C87 %1015.6 hPa9.7 km°3.5 km/hHaze
5:55 AM23 °C21 °C88 %1015.2 hPa9 kmVariable1.9 km/hScattered Clouds
6:55 AM22 °C21 °C94 %1015.2 hPa9 kmSE (130°)3.7 km/hScattered Clouds
7:55 AM23 °C22 °C94 %1015.2 hPa9 kmSouth (180°)3.7 km/hScattered Clouds
8:55 AM26 °C22 °C78 %1016.3 hPa9 kmVariable3.7 km/hPartly Cloudy
9:55 AM27 °C22 °C74 %1016.3 hPa9 kmSouth (180°)11.1 km/hScattered Clouds
10:55 AM29 °C22 °C66 %1016.3 hPa9 kmSouth (180°)9.3 km/hMostly Cloudy
11:00 AM28.9 °C22.2 °C58 %1016.3 hPa9.7 km°10.8 km/hHaze
11:55 AM30 °C21 °C58 %1016.3 hPa9 kmSouth (180°)9.3 km/hMostly Cloudy
12:55 PM31 °C21 °C55 %1016.3 hPa9 kmSSW (200°)13 km/hMostly Cloudy
1:55 PM31 °C20 °C52 %1015.2 hPa9 kmSouth (190°)13 km/hMostly Cloudy
2:55 PM28 °C23 °C74 %1015.2 hPa5 kmNE (50°)13 km/hRainRain Showers
3:22 PM25 °C22 °C83 %1015.2 hPa1.9 kmNNW (330°)16.7 km/hRainHeavy Rain Showers
3:28 PM24 °C22 °C89 %1015.2 hPa1.9 kmNNW (340°)14.8 km/hRainHeavy Rain Showers
3:55 PM24 °C21 °C83 %1015.2 hPa5 kmNNE (30°)14.8 km/hRainHeavy Rain Showers
4:16 PM26 °C21 °C74 %1015.2 hPa5 kmNW (320°)18.5 km/hRainRain Showers
4:32 PM27 °C22 °C74 %1015.2 hPa6.9 kmNNW (330°)9.3 km/hMostly Cloudy
4:55 PM27 °C22 °C74 %1015.2 hPa8 kmNE (40°)5.6 km/hMostly Cloudy
5:00 PM26.7 °C22.2 °C70 %1015.2 hPa8 kmNE (50°)7.2 km/hHaze
5:55 PM27 °C22 °C74 %1015.2 hPa8 kmEast (80°)9.3 km/hMostly Cloudy
6:55 PM26 °C23 °C83 %1015.2 hPa8 kmENE (60°)14.8 km/hMostly Cloudy
7:55 PM25 °C22 °C83 %1015.2 hPa8 kmEast (80°)7.4 km/hMostly Cloudy
8:55 PM24 °C21 °C83 %1016.3 hPa8 kmENE (70°)7.4 km/hMostly Cloudy
9:55 PM23 °C21 °C88 %1016.3 hPa8 kmENE (70°)7.4 km/hMostly Cloudy
10:55 PM23 °C21 °C88 %1017.3 hPa8 kmEast (80°)5.6 km/hScattered Clouds
11:00 PM23.3 °C21.1 °C83 %1017.3 hPa8 kmEast (90°)3.5 km/hHaze
11:55 PM23 °C21 °C88 %1017.3 hPa8 kmEast (80°)5.6 km/hScattered Clouds
Hourly data recorded from MUHA, located 0 kilometers away from Guanabacoa, Cuba







STORIES FROM OUR PARTNERS